Simultaneous Nadir Overpasses (SNOs) Predictions

Prediction of SNOs between NOAA-20 and METOP-B Satellite Orbit:

Table of predicted SNOs for the next 14.0 days since TLE Epoch: 1/28/2023
Index Date (NOAA-20) Time (NOAA-20) Lat,Lon (NOAA-20) SZA (NOAA-20 ) Date (METOP-B) Time (METOP-B) Lat,Lon (METOP-B) SZA (METOP-B ) Distance(km) Time Diff (sec)
1 02/10/2023 21:34:08 73.44,-153.21 87.98 02/10/2023 21:35:15 73.38,-150.58 87.76 83.95 67
2 02/10/2023 22:24:51 -73.38, 14.23 92.10 02/10/2023 22:25:59 -73.29, 16.55 92.34 74.46 68
3 02/10/2023 23:15:32 73.15,-177.93 87.63 02/10/2023 23:16:42 73.10,-176.53 87.49 45.53 70
4 02/11/2023 00:06:14 -73.04, -10.38 92.50 02/11/2023 00:07:26 -73.01, -9.39 92.60 32.14 72
5 02/11/2023 00:56:56 72.85, 157.33 87.28 02/11/2023 00:58:09 72.82, 157.54 87.23 7.43 73
6 02/11/2023 01:47:39 -72.79, -35.23 92.80 02/11/2023 01:48:52 -72.79, -35.21 92.82 1.10 73
7 02/11/2023 02:38:25 72.81, 132.05 87.21 02/11/2023 02:39:31 72.80, 132.15 87.18 3.34 66
8 02/11/2023 03:29:08 -72.75, -60.52 92.87 02/11/2023 03:30:14 -72.76, -60.60 92.87 3.16 66



Historial Predications of SNOs between NOAA-20 and METOP-B
